FW1310 Weather Reports


time (UTC)temp
C
wind
direction
speed
KPH
gust
KPH
rain 1hr
cm
rain 24hr
cm
rain mn
cm
humidity
%
barometer
mb
20260903131004 26 164 8.0 12.9 0.00 0.00 0.00 90 997.5
20260903130003 26 250 4.8 16.1 0.00 0.00 0.00 91 997.3
20260903125503 26 261 9.7 16.1 0.00 0.00 0.00 91 997.2
20260903125003 26 270 8.0 12.9 0.00 0.00 0.00 91 997.1
20260903124503 26 250 6.4 16.1 0.00 0.00 0.00 92 997.2
20260903124003 25 223 4.8 12.9 0.00 0.00 0.00 92 997.2
20260903123504 25 164 4.8 12.9 0.00 0.00 0.00 92 997.4
20260903123003 25 219 4.8 12.9 0.00 0.00 0.00 92 997.2
20260903122504 25 188 4.8 9.7 0.00 0.00 0.00 92 997.2
20260903122003 25 173 4.8 11.3 0.00 0.00 0.00 92 997.1
20260903121503 25 181 8.0 12.9 0.00 0.00 0.00 92 997.0
20260903121003 25 199 8.0 14.5 0.00 0.00 0.00 92 997.1
20260903120003 25 192 6.4 14.5 0.00 0.00 0.00 92 996.8
20260903115503 25 162 4.8 11.3 0.00 0.00 0.00 92 996.8
20260903115003 25 181 6.4 11.3 0.00 0.00 0.00 92 996.7
20260903114503 25 222 4.8 11.3 0.00 0.00 0.00 92 996.9
20260903114003 25 259 4.8 11.3 0.00 0.00 0.00 92 996.8
20260903113003 25 150 6.4 11.3 0.00 0.00 0.00 92 996.9
20260903112503 25 230 6.4 16.1 0.00 0.00 0.00 92 997.1
20260903111503 25 159 8.0 11.3 0.00 0.00 0.00 92 996.8
20260903111003 25 170 8.0 11.3 0.00 0.00 0.00 92 996.8
20260903110004 25 175 8.0 12.9 0.00 0.00 0.00 92 996.7
20260903105503 25 197 4.8 12.9 0.00 0.00 0.00 92 996.7
20260903104503 25 225 4.8 11.3 0.00 0.00 0.00 92 996.6
20260903104003 25 192 4.8 12.9 0.00 0.00 0.00 91 996.6
20260903103503 25 163 8.0 16.1 0.00 0.00 0.00 91 996.6
20260903103003 25 213 8.0 12.9 0.00 0.00 0.00 91 996.6
20260903102003 25 181 4.8 11.3 0.00 0.00 0.00 91 996.7
20260903101503 25 195 6.4 11.3 0.00 0.00 0.00 91 996.6
20260903100503 26 249 4.8 9.7 0.00 0.00 0.00 91 996.5
20260903100004 26 157 4.8 11.3 0.00 0.00 0.00 90 996.5
20260903095504 26 249 9.7 14.5 0.00 0.00 0.00 90 996.3
20260903094503 26 241 6.4 14.5 0.00 0.00 0.00 90 996.6
20260903093503 26 259 8.0 16.1 0.00 0.00 0.00 90 996.8
20260903093003 26 259 8.0 16.1 0.00 0.00 0.00 90 996.7
20260903092503 26 169 4.8 19.3 0.00 0.00 0.00 89 996.8
20260903091003 26 212 4.8 14.5 0.00 0.00 0.00 89 996.7
20260903090503 26 200 8.0 14.5 0.00 0.00 0.00 89 996.7
20260903090003 26 170 9.7 14.5 0.00 0.00 0.00 89 996.9
20260903085503 26 174 8.0 12.9 0.00 0.00 0.00 88 996.9
20260903085003 26 258 4.8 12.9 0.00 0.00 0.00 88 996.8
20260903084504 26 181 8.0 12.9 0.00 0.00 0.00 88 996.9
20260903084004 26 176 8.0 12.9 0.00 0.00 0.00 87 996.8
20260903083503 26 201 8.0 12.9 0.00 0.00 0.00 87 997.0
20260903082003 26 177 4.8 16.1 0.00 0.00 0.00 86 996.8
20260903081503 26 154 6.4 11.3 0.00 0.00 0.00 85 996.8
20260903081004 26 207 8.0 11.3 0.00 0.00 0.00 85 996.9
20260903080003 26 196 4.8 12.9 0.00 0.00 0.00 84 996.8
20260903075003 26 181 6.4 11.3 0.00 0.00 0.00 83 996.9
20260903074503 26 187 4.8 11.3 0.00 0.00 0.00 83 996.9
20260903074004 26 183 4.8 9.7 0.00 0.00 0.00 82 997.1
20260903073503 26 214 8.0 11.3 0.00 0.00 0.00 82 996.9
20260903073003 26 193 6.4 14.5 0.00 0.00 0.00 81 997.0
20260903072003 26 185 9.7 16.1 0.00 0.00 0.00 81 997.0
20260903071004 27 189 8.0 11.3 0.00 0.00 0.00 80 997.2
20260903070503 27 156 8.0 11.3 0.00 0.00 0.00 80 997.1
20260903070004 27 177 6.4 14.5 0.00 0.00 0.00 79 997.1
20260903065503 27 161 8.0 14.5 0.00 0.00 0.00 78 997.1
20260903064004 27 201 8.0 11.3 0.00 0.00 0.00 77 997.3
20260903063503 27 174 9.7 14.5 0.00 0.00 0.00 77 997.4
20260903063003 26 201 6.4 11.3 0.00 0.00 0.00 78 997.1
20260903062003 26 212 3.2 9.7 0.00 0.00 0.00 81 997.5
20260903061003 26 177 8.0 11.3 0.00 0.00 0.00 81 997.4
20260903060504 26 156 6.4 11.3 0.00 0.00 0.00 80 997.5
20260903060003 26 130 6.4 11.3 0.00 0.00 0.00 81 997.4
20260903055503 26 197 4.8 9.7 0.00 0.00 0.00 81 997.4
20260903055003 26 171 4.8 8.0 0.00 0.00 0.00 81 997.5
20260903054503 26 180 3.2 11.3 0.00 0.00 0.00 81 997.4
20260903054003 26 120 4.8 9.7 0.00 0.00 0.00 81 997.3
20260903053504 26 187 4.8 9.7 0.00 0.00 0.00 81 997.2
20260903053004 26 134 3.2 8.0 0.00 0.00 0.00 81 997.4
20260903051003 26 146 8.0 12.9 0.00 0.00 0.00 80 997.3
20260903050504 26 170 4.8 11.3 0.00 0.00 0.00 80 997.1
20260903050003 26 176 4.8 9.7 0.00 0.00 0.00 79 997.3
20260903045504 27 143 3.2 12.9 0.00 0.00 0.00 79 997.2
20260903045004 27 158 3.2 8.0 0.00 0.00 0.00 78 997.3
20260903044504 27 146 3.2 8.0 0.00 0.00 0.00 77 997.3
20260903044003 27 155 3.2 9.7 0.00 0.00 0.00 76 997.3
20260903043503 27 153 4.8 12.9 0.00 0.00 0.00 76 997.3
20260903042503 27 141 4.8 9.7 0.00 0.00 0.00 75 997.2
20260903042003 27 96 4.8 9.7 0.00 0.00 0.00 74 997.2
20260903041504 27 70 3.2 9.7 0.00 0.00 0.00 74 997.2
20260903041003 27 99 4.8 11.3 0.00 0.00 0.00 73 997.2
20260903040503 28 167 6.4 12.9 0.00 0.00 0.00 72 997.3
20260903040003 28 167 8.0 14.5 0.00 0.00 0.00 72 997.4
20260903035503 28 174 4.8 11.3 0.00 0.00 0.00 72 997.2
20260903035003 28 117 8.0 12.9 0.00 0.00 0.00 71 997.3
20260903034504 28 180 4.8 11.3 0.00 0.00 0.00 70 997.5
20260903034003 28 133 4.8 11.3 0.00 0.00 0.00 69 997.4
20260903033503 28 165 6.4 11.3 0.00 0.00 0.00 68 997.3
20260903033003 29 117 4.8 9.7 0.00 0.00 0.00 66 997.0
20260903032503 29 138 4.8 11.3 0.00 0.00 0.00 65 997.1
20260903032003 29 98 4.8 8.0 0.00 0.00 0.00 64 997.1
20260903031503 30 186 4.8 8.0 0.00 0.00 0.00 64 997.0
20260903031003 30 130 3.2 12.9 0.00 0.00 0.00 63 996.9
20260903030504 30 92 4.8 12.9 0.00 0.00 0.00 62 996.7
20260903030003 30 93 3.2 11.3 0.00 0.00 0.00 62 996.7
20260903025503 31 129 1.6 4.8 0.00 0.00 0.00 62 996.8
20260903025003 31 133 1.6 3.2 0.00 0.00 0.00 60 996.5
20260903024503 31 121 1.6 4.8 0.00 0.00 0.00 59 996.3
20260903024003 31 129 1.6 3.2 0.00 0.00 0.00 59 996.1
20260903023004 31 127 1.6 4.8 0.00 0.00 0.00 59 996.0
20260903022504 31 139 3.2 4.8 0.00 0.00 0.00 58 996.2
20260903022003 31 124 1.6 3.2 0.00 0.00 0.00 58 996.0
20260903021503 31 136 1.6 4.8 0.00 0.00 0.00 58 996.0
20260903021003 31 138 1.6 3.2 0.00 0.00 0.00 58 995.9
20260903020503 31 133 1.6 3.2 0.00 0.00 0.00 57 995.7
20260903020003 31 130 1.6 4.8 0.00 0.00 0.00 57 995.7
20260903015003 31 140 1.6 1.6 0.00 0.00 0.00 58 995.6
20260903014004 31 151 1.6 3.2 0.00 0.00 0.00 58 995.5
20260903013503 31 123 0.0 3.2 0.00 0.00 0.00 59 995.3
20260903013003 31 141 1.6 3.2 0.00 0.00 0.00 58 995.3
20260903012504 31 104 1.6 1.6 0.00 0.00 0.00 58 995.3
20260903012003 32 119 1.6 1.6 0.00 0.00 0.00 57 995.5
20260903010503 32 138 1.6 3.2 0.00 0.00 0.00 54 995.5
20260903010004 33 168 1.6 4.8 0.00 0.00 0.00 52 995.5
20260903005504 33 204 3.2 3.2 0.00 0.00 0.00 50 995.4
20260903005004 33 95 0.0 3.2 0.00 0.00 0.00 50 995.5
20260903004503 33 84 1.6 3.2 0.00 0.00 0.00 49 995.5
20260903003503 33 102 1.6 3.2 0.00 0.00 0.00 48 995.3
20260903003003 33 94 0.0 1.6 0.00 0.00 0.00 48 995.2
20260903002504 33 106 0.0 3.2 0.00 0.00 0.00 48 995.2
20260903002003 33 96 1.6 3.2 0.00 0.00 0.00 49 995.3
20260903000503 33 113 1.6 3.2 0.00 0.00 0.00 50 995.3
20260903000003 33 84 1.6 4.8 0.00 0.00 0.00 50 995.3
20260902235503 33 71 3.2 4.8 0.00 0.00 0.00 50 995.3
20260902234504 33 131 1.6 3.2 0.00 0.00 0.00 49 995.2
20260902234003 33 172 1.6 3.2 0.00 0.00 0.00 49 995.3
20260902233504 33 126 1.6 4.8 0.00 0.00 0.00 49 995.3
20260902233003 33 134 3.2 8.0 0.00 0.00 0.00 48 995.2
20260902232503 33 107 3.2 4.8 0.00 0.00 0.00 47 995.3
20260902232003 33 163 3.2 4.8 0.00 0.00 0.00 47 995.2
20260902231503 33 159 3.2 4.8 0.00 0.00 0.00 48 995.1
20260902231003 33 159 4.8 11.3 0.00 0.00 0.00 49 995.3
20260902230504 33 182 4.8 9.7 0.00 0.00 0.00 50 995.2
20260902230004 34 169 4.8 19.3 0.00 0.00 0.00 49 995.2
20260902225503 33 124 8.0 19.3 0.00 0.00 0.00 51 995.1
20260902225003 36 105 3.2 14.5 0.00 0.00 0.00 45 995.2
20260902224503 38 79 3.2 4.8 0.00 0.00 0.00 40 995.2
20260902224003 40 137 1.6 1.6 0.00 0.00 0.00 37 995.1
20260902223003 39 65 1.6 4.8 0.00 0.00 0.00 38 995.2
20260902222504 39 331 3.2 4.8 0.00 0.00 0.00 38 995.2
20260902221503 39 153 1.6 8.0 0.00 0.00 0.00 38 995.2
20260902221003 39 113 1.6 3.2 0.00 0.00 0.00 38 995.3
20260902220003 38 266 3.2 4.8 0.00 0.00 0.00 38 995.3
20260902215503 38 74 1.6 9.7 0.00 0.00 0.00 39 995.4
20260902214504 38 87 1.6 4.8 0.00 0.00 0.00 40 995.5
20260902212504 37 92 1.6 8.0 0.00 0.00 0.00 42 995.5
20260902211504 37 63 1.6 9.7 0.00 0.00 0.00 42 995.5
20260902210503 38 38 4.8 11.3 0.00 0.00 0.00 38 995.5
20260902210003 38 78 3.2 4.8 0.00 0.00 0.00 40 995.7
20260902205003 37 62 6.4 12.9 0.00 0.00 0.00 42 995.7
20260902204503 38 85 4.8 11.3 0.00 0.00 0.00 41 995.9
20260902204004 38 47 6.4 12.9 0.00 0.00 0.00 41 996.1
20260902203504 37 179 9.7 19.3 0.00 0.00 0.00 43 996.0
20260902203004 38 80 3.2 11.3 0.00 0.00 0.00 42 996.0
20260902202503 38 64 3.2 8.0 0.00 0.00 0.00 42 996.2
20260902202003 37 86 3.2 4.8 0.00 0.00 0.00 43 996.3
20260902201503 37 121 1.6 8.0 0.00 0.00 0.00 43 996.3
20260902201003 38 45 4.8 8.0 0.00 0.00 0.00 43 996.4
20260902200503 37 118 1.6 4.8 0.00 0.00 0.00 43 996.5
20260902200003 37 90 4.8 9.7 0.00 0.00 0.00 43 996.6
20260902195503 38 82 3.2 11.3 0.00 0.00 0.00 42 996.5
20260902194504 39 141 1.6 4.8 0.00 0.00 0.00 38 996.8
20260902194004 39 109 0.0 4.8 0.00 0.00 0.00 39 996.8
20260902192004 38 159 1.6 3.2 0.00 0.00 0.00 41 997.3
20260902191503 38 145 1.6 3.2 0.00 0.00 0.00 41 997.2
20260902191003 38 106 1.6 3.2 0.00 0.00 0.00 41 997.3
20260902190503 38 147 3.2 4.8 0.00 0.00 0.00 40 997.3
20260902190003 37 161 1.6 11.3 0.00 0.00 0.00 41 997.5
20260902185004 37 72 3.2 4.8 0.00 0.00 0.00 43 997.6
20260902184504 37 246 4.8 8.0 0.00 0.00 0.00 41 997.5
20260902184004 37 31 1.6 4.8 0.00 0.00 0.00 41 997.8
20260902183504 37 236 3.2 4.8 0.00 0.00 0.00 41 998.0
20260902183004 37 246 3.2 8.0 0.00 0.00 0.00 42 998.0
20260902182504 38 89 1.6 3.2 0.00 0.00 0.00 42 998.0
20260902182004 37 188 4.8 11.3 0.00 0.00 0.00 43 998.0
20260902181503 36 79 3.2 4.8 0.00 0.00 0.00 43 998.0
20260902181003 36 81 1.6 9.7 0.00 0.00 0.00 44 998.3
20260902180503 36 116 1.6 3.2 0.00 0.00 0.00 43 998.4
20260902180006 37 105 1.6 3.2 0.00 0.00 0.00 43 998.6
20260902175503 37 110 1.6 4.8 0.00 0.00 0.00 43 998.6
20260902175003 36 165 3.2 4.8 0.00 0.00 0.00 44 998.8
20260902173503 36 70 3.2 8.0 0.00 0.00 0.00 46 998.9
20260902173003 37 113 1.6 4.8 0.00 0.00 0.00 46 999.0
20260902172504 37 297 3.2 4.8 0.00 0.00 0.00 44 999.0
20260902172004 36 129 1.6 3.2 0.00 0.00 0.00 46 999.3
20260902171503 36 97 3.2 3.2 0.00 0.00 0.00 46 999.1
20260902171003 36 151 1.6 9.7 0.00 0.00 0.00 46 999.2
20260902170503 36 303 1.6 4.8 0.00 0.00 0.00 46 999.3
20260902170003 36 95 0.0 8.0 0.00 0.00 0.00 48 999.3
20260902165503 35 142 1.6 4.8 0.00 0.00 0.00 49 999.6
20260902165003 36 35 4.8 8.0 0.00 0.00 0.00 47 999.5
20260902164503 36 122 1.6 3.2 0.00 0.00 0.00 47 999.5
20260902164004 35 80 1.6 16.1 0.00 0.00 0.00 48 999.7
20260902163504 35 256 8.0 16.1 0.00 0.00 0.00 48 999.6
20260902163004 35 117 1.6 4.8 0.00 0.00 0.00 48 999.6
20260902162504 35 352 4.8 8.0 0.00 0.00 0.00 48 999.8
20260902162004 35 78 1.6 3.2 0.00 0.00 0.00 50 999.7
20260902161003 34 304 3.2 9.7 0.00 0.00 0.00 50 999.7
20260902160503 35 293 4.8 9.7 0.00 0.00 0.00 49 999.6
20260902155004 34 209 3.2 9.7 0.00 0.00 0.00 51 999.7
20260902154504 33 74 3.2 4.8 0.00 0.00 0.00 51 999.7
20260902154004 33 44 3.2 4.8 0.00 0.00 0.00 51 999.8
20260902153504 33 65 1.6 3.2 0.00 0.00 0.00 54 999.8
20260902153004 32 92 0.0 3.2 0.00 0.00 0.00 57 1000.0
20260902152503 33 80 1.6 3.2 0.00 0.00 0.00 56 999.8
20260902152004 33 103 3.2 4.8 0.00 0.00 0.00 54 999.8
20260902151503 33 0 3.2 3.2 0.00 0.00 0.00 56 999.8
20260902151003 32 104 3.2 4.8 0.00 0.00 0.00 57 999.8
20260902144503 31 109 1.6 8.0 0.00 0.00 0.00 64 999.9
20260902144003 30 243 3.2 8.0 0.00 0.00 0.00 65 999.7
20260902143504 30 105 0.0 3.2 0.00 0.00 0.00 66 999.9
20260902143003 30 218 3.2 4.8 0.00 0.00 0.00 66 999.7
20260902142503 30 82 3.2 4.8 0.00 0.00 0.00 67 999.7
20260902142003 29 139 3.2 4.8 0.00 0.00 0.00 69 999.6
20260902141504 28 22 3.2 9.7 0.00 0.00 0.00 69 999.6
20260902141003 28 206 4.8 11.3 0.00 0.00 0.00 69 999.8
20260902140504 28 23 3.2 4.8 0.00 0.00 0.00 69 999.5
20260902140004 28 38 3.2 4.8 0.00 0.00 0.00 71 999.6
20260902135003 27 283 3.2 9.7 0.00 0.00 0.00 72 999.6
20260902134503 27 237 3.2 8.0 0.00 0.00 0.00 73 999.5
20260902133504 27 181 1.6 3.2 0.00 0.00 0.00 75 999.6
20260902132503 26 219 1.6 3.2 0.00 0.00 0.00 76 999.3
20260902132003 26 139 1.6 3.2 0.00 0.00 0.00 77 999.3
20260902131503 26 143 1.6 3.2 0.00 0.00 0.00 77 999.3